Location: Mill Valley
(37.9061°N, 122.5450°W)
Time: 07:57:42
(UTC+00:00)

Daily predictions for brighter satellites

Satellite Brightness Start Highest point End
(mag) Time Altitude Azimuth Time Altitude Azimuth Time Altitude Azimuth
Cosmos 2297 Rocket 4.2 12:11:52 21° SE 12:11:52 21° SE 12:13:42 10° SE
Cosmos 2227 Rocket 3.7 12:23:21 29° SE 12:23:21 29° SE 12:26:01 10° SSE
Cosmos 2074 Rocket 4.5 12:25:47 57° E 12:25:47 57° E 12:31:39 10° SSE
USA 215 4.4 12:27:57 10° E 12:33:41 34° NNE 12:35:14 30° N
Cosmos 2278 4.2 12:36:21 56° E 12:36:21 56° E 12:41:22 10° NNE
ATLAS 2AS CENTAUR R/B 3.8 12:49:23 10° S 12:56:51 49° ESE 13:04:29 10° NE
ALOS 3.3 12:59:55 10° NNE 13:04:24 45° E 13:08:52 10° S
Cosmos 1980 Rocket 2.3 13:01:30 28° S 13:04:34 75° ESE 13:10:15 10° NNE
Cosmos 1953 3.1 13:02:13 10° SSE 13:06:07 50° E 13:10:03 10° NNE
FENGYUN 3A 4.5 13:03:05 10° NNE 13:08:22 51° E 13:13:36 10° S
Okean O Rocket 3.8 13:05:50 10° NE 13:09:33 26° E 13:13:14 10° SSE
USA 238 DEB 4.4 13:05:31 22° NNW 13:10:13 55° NE 13:17:30 10° SE
USA 238 4.4 13:05:36 22° NNW 13:10:20 55° NE 13:17:36 10° SE
STARLINK-58 4.3 13:12:27 47° NE 13:12:27 47° NE 13:15:24 10° NE
Nadezhda 1 Rocket 3.7 13:05:34 10° S 13:11:37 76° W 13:17:42 10° N
Cosmos 1697 Rocket 3.4 13:14:12 36° NNW 13:14:12 36° NNW 13:17:50 10° NNE
STARLINK-62 4.3 13:14:09 48° NE 13:14:09 48° NE 13:17:07 10° NE
Cosmos 2327 Rocket 4.3 13:08:10 10° N 13:14:26 83° W 13:20:34 10° S
Cosmos 1538 Rocket 3.9 13:15:27 57° SW 13:16:30 76° WNW 13:21:50 10° NNE
COSMOS 2455 2.7 13:15:52 20° SSW 13:20:12 89° WNW 13:26:16 10° NNE
CZ-3 Stage 3 3.8 13:20:31 32° SW 13:21:43 34° SSW 13:25:10 10° SE
BREEZE-M DEB (TANK) 3.8 13:25:59 29° N 13:26:00 29° N 13:32:15 10° NE
STARLINK-33 4.3 13:27:24 37° NNE 13:27:24 37° NNE 13:29:47 10° NE
CZ-3 R/B 3.3 13:16:10 25° WSW 13:27:39 52° SSW 13:34:14 10° ESE
STARLINK-66 4.2 13:30:51 37° NNE 13:30:51 37° NNE 13:33:19 10° NE
SEDSat Delta rocket 4.4 13:29:13 33° SW 13:31:16 43° S 13:36:33 10° ESE
STARLINK-55 4.2 13:34:27 36° N 13:34:27 36° N 13:36:58 10° NE
STARLINK-34 3.6 13:34:44 58° NNW 13:34:44 58° NNW 13:38:31 10° NE
STARLINK-24 3.6 13:36:34 57° NNW 13:36:34 57° NNW 13:40:24 10° NE
SWAS 4.3 13:36:28 58° WNW 13:37:04 67° WSW 13:41:17 10° SSE
STARLINK-81 3.5 13:37:32 61° NW 13:37:36 61° NW 13:41:36 10° NE
STARLINK-28 4.3 13:38:56 33° N 13:38:56 33° N 13:41:22 10° NE
STARLINK-54 3.6 13:39:28 54° NW 13:39:28 54° NW 13:43:26 10° NE
COSMO-SKYMED 1 2.4 13:35:34 10° S 13:39:53 72° WSW 13:42:20 25° NNW
Centaur D-1A AC-32 4.1 13:38:37 14° SSW 13:40:14 17° S 13:43:02 10° SE
STARLINK-77 3.5 13:40:42 56° NW 13:40:55 57° NW 13:44:53 10° NE
Cosmos 1606 Rocket 3.6 13:36:37 10° S 13:41:04 81° E 13:45:30 10° N
Cosmos 2082 4.0 13:39:48 38° WNW 13:41:06 44° WSW 13:46:28 10° S
Cosmos 2184 Rocket 4.5 13:41:10 34° WNW 13:41:46 35° W 13:47:20 10° SSW
STARLINK-25 3.6 13:42:18 54° NW 13:42:34 55° NW 13:46:32 10° NE
Cosmos 1726 Rocket 3.9 13:38:40 10° S 13:43:04 66° E 13:47:27 10° NNE
STARLINK-71 3.7 13:44:16 48° NW 13:44:27 48° NW 13:48:22 10° NE
STARLINK-46 4.5 13:46:14 20° SE 13:46:14 20° SE 13:47:02 10° SE
STARLINK-79 3.7 13:45:28 49° WNW 13:45:52 51° NW 13:49:48 10° NE
STARLINK-42 3.8 13:46:31 43° NNW 13:46:31 43° NNW 13:50:04 10° NE
STARLINK-78 3.7 13:47:08 47° WNW 13:47:35 49° NW 13:51:31 10° NE
SJ-12 4.0 13:44:10 10° N 13:48:06 49° WNW 13:52:02 10° SSW
CZ-4B DEB 4.1 13:42:59 10° N 13:48:33 76° WNW 13:54:02 10° SSW
STARLINK-57 3.8 13:48:53 44° WNW 13:49:20 46° NW 13:53:14 10° NE
STARLINK-64 3.8 13:49:21 42° NW 13:49:27 42° NW 13:53:07 10° NE
Cosmos 1680 Rocket 3.8 13:44:24 10° S 13:49:40 70° ESE 13:54:59 10° NNE
Cosmos 2154 Rocket 4.1 13:44:11 10° NNW 13:50:06 49° W 13:56:00 10° SSW
STARLINK-49 3.8 13:50:16 43° WNW 13:50:51 47° NW 13:54:46 10° NE
Cosmos 2297 Rocket 3.9 13:53:45 15° SW 13:53:45 15° SW 13:55:22 10° SW
NOAA 6 4.1 13:46:29 10° NNE 13:51:42 80° ESE 13:56:53 10° S
STARLINK-27 3.9 13:51:54 41° WNW 13:52:33 45° NW 13:56:27 10° NE
Cosmos 2322 Rocket 3.3 13:48:17 10° S 13:53:38 46° ESE 13:59:03 10° NE
STARLINK-74 3.9 13:53:26 39° WNW 13:54:10 44° NW 13:58:03 10° NE
STARLINK-39 3.9 13:55:04 37° WNW 13:55:52 42° NW 13:59:43 10° NE
Cosmos 972 Rocket 4.2 13:50:54 10° NNW 13:57:06 87° WSW 14:02:34 10° SSE
STARLINK 4.0 13:56:43 36° WNW 13:57:35 41° NW 14:01:25 10° NE
STARLINK-69 4.1 13:58:35 33° WNW 13:59:24 37° NW 14:03:10 10° NE
STARLINK-21 4.1 13:59:55 33° WNW 14:00:54 38° NW 14:04:42 10° NE
STARLINK 1035 4.2 13:59:02 10° SSW 14:02:13 44° SE 14:05:27 10° ENE
NOSS 3-2 (C) 4.3 13:55:05 10° NNW 14:02:49 73° NE 14:11:19 10° SE
STARLINK-45 4.3 14:01:54 30° WNW 14:02:49 34° NNW 14:06:31 10° NNE
SMAP 4.5 13:59:21 10° NNE 14:03:44 41° E 14:08:06 10° S
MOS 1-B 4.4 13:58:11 10° N 14:03:46 52° WNW 14:09:21 10° SW
Cosmos 2227 Rocket 3.9 14:05:15 14° WSW 14:05:15 14° WSW 14:07:02 10° SW
STARLINK-70 4.3 14:03:18 29° WNW 14:04:21 35° NW 14:08:04 10° NNE
STARLINK 1027 3.9 14:01:26 10° SSW 14:04:41 51° SE 14:07:58 10° ENE
Cosmos 44 Rocket 3.7 14:03:13 26° WNW 14:05:16 39° WSW 14:09:42 10° S
STARLINK 1060 4.2 14:01:54 10° SSW 14:05:21 47° SE 14:08:50 10° ENE
Cosmos 1726 2.2 14:02:13 10° SSW 14:05:48 49° W 14:09:22 10° N
STARLINK-76 4.2 14:04:41 29° WNW 14:05:53 35° NW 14:09:37 10° NNE
STARLINK 1040 3.0 14:03:58 17° SW 14:06:02 63° SE 14:08:51 10° NE
NOSS 2 (A) 3.9 14:06:05 56° WSW 14:06:13 57° WSW 14:08:34 10° SSE
Cosmos 2112 Rocket 4.1 14:01:03 10° SSW 14:06:23 85° ESE 14:11:46 10° NNE
STARLINK 4.3 14:06:17 27° WNW 14:07:33 34° NNW 14:11:16 10° NNE
Abrixas rocket 4.0 14:06:23 16° NNW 14:07:38 20° NNE 14:10:00 10° ENE
STARLINK 1030 4.1 14:04:40 10° SSW 14:08:09 50° SE 14:11:39 10° ENE
Cosmos 2263 Rocket 2.7 14:02:53 10° NNW 14:08:29 60° ENE 14:14:04 10° SE
Cosmos 2228 3.1 14:04:21 10° SSW 14:08:39 53° W 14:12:58 10° N
DMSP B5D1-3 4.5 14:03:38 10° SSE 14:08:45 88° WSW 14:13:53 10° NNW
STARLINK-32 4.3 14:07:52 26° WNW 14:09:13 33° NNW 14:12:54 10° NNE
SL-4 R/B 2.0 14:07:19 22° NW 14:09:22 55° NE 14:12:43 10° ESE
H-2A R/B 3.7 14:05:33 10° NNE 14:09:23 52° E 14:13:09 10° S
SJ-7 4.4 14:05:15 10° N 14:09:24 81° WNW 14:13:36 10° SSW
STARLINK-40 4.3 14:09:29 25° WNW 14:10:53 33° NNW 14:14:33 10° NNE
STARLINK 1020 4.0 14:07:27 10° SSW 14:10:57 54° SE 14:14:29 10° ENE
ATLAS 3B R/B 3.7 14:06:03 10° NNW 14:12:28 44° NE 14:19:03 10° ESE
STARLINK-44 4.4 14:11:05 24° WNW 14:12:34 32° NNW 14:16:12 10° NNE
NOSS 3-4 (A) 3.3 14:06:51 10° SW 14:12:47 71° NW 14:19:02 10° NNE
NOSS 3-4 (C) 3.3 14:06:58 10° SW 14:12:53 72° NW 14:19:08 10° NNE
Helios 1A Rocket 2.8 14:08:54 10° N 14:13:02 79° WNW 14:17:10 10° SSW
Cosmos 2344 4.4 14:09:02 19° W 14:13:03 29° NW 14:19:59 10° NNE
STARLINK 1034 3.8 14:10:15 10° SW 14:13:46 58° SE 14:17:19 10° NE
STARLINK-37 4.5 14:12:50 23° WNW 14:14:19 30° NNW 14:17:54 10° NNE
STARLINK-36 4.5 14:14:16 22° WNW 14:15:53 30° NNW 14:19:29 10° NNE
USA 215 3.3 14:09:46 10° SE 14:16:18 76° SW 14:22:36 11° NW
Cosmos 2366 rocket 4.1 14:11:10 10° N 14:17:33 86° E 14:23:54 10° S
Cosmos 1908 3.1 14:14:34 10° SSW 14:18:27 68° W 14:22:21 10° N
STARLINK 1033 3.6 14:15:53 10° SW 14:19:27 68° SE 14:23:02 10° NE
NOSS 7 (D) 4.4 14:19:19 19° NW 14:21:27 59° WSW 14:25:00 10° SSE
ATLAS 2A CENTAUR R/B 4.0 14:19:38 10° SSW 14:23:04 23° SE 14:31:18 10° E
NOSS 3-2 (A) 4.2 14:16:55 10° NW 14:24:36 62° WSW 14:32:59 10° SSE
Lacrosse 5 2.1 14:23:43 10° SW 14:28:46 75° SE 14:33:51 10° NE
SL-16 R/B 2.2 14:26:49 10° SSW 14:32:27 69° WNW 14:38:07 10° NNE
ADEOS Rocket 2.7 14:27:05 10° SSE 14:32:34 87° WSW 14:38:11 10° NNW
Cosmos 1703 3.4 14:29:09 10° NNW 14:33:01 53° W 14:36:49 10° S
Cosmos 1953 Rocket 3.9 14:29:21 10° NNW 14:33:32 42° W 14:37:40 10° SSW
Genesis I 4.2 14:31:20 10° NNW 14:35:03 43° NE 14:38:41 10° SE
CENTAUR R/B 3.3 14:28:35 10° NNW 14:36:52 89° NE 14:45:40 10° SSE
STARLINK 1029 2.8 14:36:23 10° WSW 14:39:28 63° NW 14:42:35 10° NE
STARLINK 1044 3.2 14:36:07 10° SW 14:39:43 72° NW 14:43:20 10° NE
Alouette 2 Rocket 4.5 14:35:12 10° S 14:40:34 58° E 14:44:28 10° NNE
ALOS 3.7 14:38:25 10° NNW 14:41:26 17° WNW 14:44:26 10° WSW
Milstar 3 Cent rocket 4.4 14:30:02 10° WSW 14:41:36 40° S 14:47:44 10° ESE
Cosmos 2056 Rocket 4.0 14:36:32 10° NNW 14:41:57 67° ENE 14:47:20 10° SSE
Cosmos 2360 Rocket 2.9 14:36:41 10° S 14:42:14 60° ESE 14:47:49 10° NNE
Cosmos 1953 4.2 14:41:55 10° W 14:42:49 11° WNW 14:43:44 10° WNW
CZ-4 R/B 4.1 14:39:57 10° NE 14:43:31 26° E 14:47:02 10° SSE
Okean-O 3.7 14:40:42 10° NNE 14:45:02 51° E 14:49:21 10° S
Okean O Rocket 2.6 14:42:06 10° NNW 14:45:49 26° WNW 14:49:29 10° SW
CZ-4B R/B 3.7 14:40:47 10° N 14:45:49 37° WNW 14:50:44 10° SW
ATLAS 2AS CENTAUR R/B 3.5 14:40:36 10° WSW 14:48:01 41° NW 14:55:30 10° NNE
Cosmos 1980 Rocket 3.7 14:45:45 10° W 14:49:11 16° NW 14:52:37 10° NNW
STARLINK 1028 3.3 14:49:58 10° WSW 14:52:42 37° NW 14:55:27 10° NNE
STARLINK 1021 3.3 14:50:11 10° WSW 14:52:55 36° NW 14:55:40 10° NNE
CZ-2C R/B 4.3 14:48:22 10° SSE 14:52:55 61° ENE 14:57:25 10° N
STARLINK 1019 3.3 14:50:26 10° WSW 14:53:08 36° NW 14:55:52 10° NNE
STARLINK 1012 3.3 14:50:39 10° WSW 14:53:22 36° NW 14:56:07 10° NNE
STARLINK 1010 3.3 14:50:51 10° WSW 14:53:35 36° NW 14:56:19 10° NNE
STARLINK 1026 3.3 14:51:05 10° WSW 14:53:48 36° NW 14:56:32 10° NNE
STARLINK 1013 3.4 14:51:19 10° WSW 14:54:03 35° NW 14:56:46 10° NNE
STARLINK 1009 3.4 14:51:33 10° WSW 14:54:16 35° NW 14:57:00 10° NNE
STARLINK 1015 3.4 14:51:47 10° WSW 14:54:30 35° NW 14:57:14 10° NNE
STARLINK 1016 3.4 14:52:00 10° WSW 14:54:42 35° NW 14:57:26 10° NNE
